Satellite: NOAA-16
Catalog number: 26536
Epoch time:      11124.80007776
Element set:    0284
Inclination:      099.1423 deg
RA of node:       154.4545 deg
Eccentricity:    0.0011105
Arg of perigee:   150.9425 deg
Mean anomaly:     209.2362 deg
Mean motion:   14.12612934 rev/day
Decay rate:       -5.9e-07 rev/day^2
Epoch rev:           54723
Checksum:              281

Satellite: NOAA-17
Catalog number: 27453
Epoch time:      11124.90142894
Element set:    0278
Inclination:      098.3822 deg
RA of node:       166.5897 deg
Eccentricity:    0.0010716
Arg of perigee:   276.3569 deg
Mean anomaly:     083.6357 deg
Mean motion:   14.24266632 rev/day
Decay rate:       1.21e-06 rev/day^2
Epoch rev:           46049
Checksum:              324

Satellite: NOAA-18
Catalog number: 28654
Epoch time:      11124.92976645
Element set:    0758
Inclination:      098.9922 deg
RA of node:       075.9784 deg
Eccentricity:    0.0013670
Arg of perigee:   224.7821 deg
Mean anomaly:     135.2284 deg
Mean motion:   14.11468214 rev/day
Decay rate:       2.22e-06 rev/day^2
Epoch rev:           30682
Checksum:              325

Satellite: NOAA-19
Catalog number: 33591
Epoch time:      11124.91747800
Element set:    0950
Inclination:      098.8244 deg
RA of node:       065.8047 deg
Eccentricity:    0.0015019
Arg of perigee:   097.4244 deg
Mean anomaly:     262.8651 deg
Mean motion:   14.11159166 rev/day
Decay rate:       -2.6e-07 rev/day^2
Epoch rev:           11528
Checksum:              303

/EX
SB KEPS @ AMSAT  $ORB11125.M
Orbital Elements  11125.MISC

HR AMSAT ORBITAL ELEMENTS FOR MANNED AND MISCELLANEOUS SATELLITES
FROM WA5QGD FORT WORTH,TX May 5, 2011
Send Subscribe/unsubscribe to KEPS at http://www.amsat.org/mailman/listinfo/kep
BID: ORB11125.M
TO ALL RADIO AMATEURS BT

Satellite: HUBBLE
Catalog number: 20580
Epoch time:      11123.84563713
Element set:     758
Inclination:      028.4711 deg
RA of node:       306.0920 deg
Eccentricity:    0.0003234
Arg of perigee:   008.7594 deg
Mean anomaly:     351.3362 deg
Mean motion:   15.01330296 rev/day
Decay rate:      1.993e-05 rev/day^2
Epoch rev:           95298
Checksum:              284

Satellite: ISS
Catalog number: 25544
Epoch time:      11126.07665311
Element set:     304
Inclination:      051.6459 deg
RA of node:       016.9971 deg
Eccentricity:    0.0002718
Arg of perigee:   218.8539 deg
Mean anomaly:     244.0236 deg
Mean motion:   15.74499380 rev/day
Decay rate:     2.7365e-04 rev/day^2
Epoch rev:           71427
Checksum:              306

Satellite: CO-58
Catalog number: 28895
Epoch time:      11125.57713461
Element set:     865
Inclination:      097.9709 deg
RA of node:       003.5993 deg
Eccentricity:    0.0017655
Arg of perigee:   358.4736 deg
Mean anomaly:     001.6373 deg
Mean motion:   14.60085230 rev/day
Decay rate:       5.46e-06 rev/day^2
Epoch rev:           29402
Checksum:              329

Satellite: FALCON
Catalog number: 30776
Epoch time:      11124.71249023
Element set:      78
Inclination:      035.4345 deg
RA of node:       251.3040 deg
Eccentricity:    0.0001061
Arg of perigee:   033.2808 deg
Mean anomaly:     326.7976 deg
Mean motion:   15.04525874 rev/day
Decay rate:      3.560e-05 rev/day^2
Epoch rev:           22849
Checksum:              274

Satellite: MAST
Catalog number: 31126
Epoch time:      11125.56818653
Element set:     150
Inclination:      097.8998 deg
RA of node:       155.1967 deg
Eccentricity:    0.0093599
Arg of perigee:   303.9568 deg
Mean anomaly:     055.2754 deg
Mean motion:   14.53735252 rev/day
Decay rate:       4.56e-06 rev/day^2
Epoch rev:           21489
Checksum:              337

Satellite: CAPE1
Catalog number: 31130
Epoch time:      11124.96350307
Element set:    0169
Inclination:      097.8998 deg
RA of node:       151.4553 deg
Eccentricity:    0.0101721
Arg of perigee:   316.2369 deg
Mean anomaly:     043.0848 deg
Mean motion:   14.52373819 rev/day
Decay rate:       8.06e-06 rev/day^2
Epoch rev:           21436
Checksum:              292

Satellite: COMPASS
Catalog number: 32787
Epoch time:      11125.68628627
Element set:     977
Inclination:      097.8498 deg
RA of node:       190.2883 deg
Eccentricity:    0.0014841
Arg of perigee:   318.2483 deg
Mean anomaly:     041.7582 deg
Mean motion:   14.82363274 rev/day
Decay rate:      2.011e-05 rev/day^2
Epoch rev:           16326
Checksum:              325

Satellite: AAUSAT2
Catalog number: 32788
Epoch time:      11124.71036763
Element set:    0970
Inclination:      097.8505 deg
RA of node:       189.5405 deg
Eccentricity:    0.0014424
Arg of perigee:   322.3422 deg
Mean anomaly:     037.6807 deg
Mean motion:   14.82540846 rev/day
Decay rate:      2.106e-05 rev/day^2
Epoch rev:           16313
Checksum:              291

Satellite: DO-64
Catalog number: 32789
Epoch time:      11124.86811465
Element set:    0986
Inclination:      097.8603 deg
RA of node:       190.6185 deg
Eccentricity:    0.0014308
Arg of perigee:   319.4069 deg
Mean anomaly:     040.6045 deg
Mean motion:   14.82962602 rev/day
Decay rate:      3.162e-05 rev/day^2
Epoch rev:           16316
Checksum:              318

